TimeEDT,TemperatureF,Dew PointF,Humidity,Sea Level PressureIn,VisibilityMPH,Wind Direction,Wind SpeedMPH,Gust SpeedMPH,PrecipitationIn,Events,Conditions,WindDirDegrees,DateUTC
12:16 AM,57.6,50.5,77,29.98,10.0,SSW,8.1,-,N/A,,Clear,210,2013-09-15 04:16:00
12:36 AM,58.1,50.5,76,29.98,10.0,SSW,10.4,-,N/A,,Clear,210,2013-09-15 04:36:00
12:56 AM,58.1,50.9,77,29.97,10.0,SSW,10.4,-,N/A,,Clear,210,2013-09-15 04:56:00
1:16 AM,58.1,51.3,78,29.97,10.0,SSW,8.1,-,N/A,,Clear,210,2013-09-15 05:16:00
1:36 AM,59.2,52.7,79,29.96,10.0,SW,10.4,-,N/A,,Clear,220,2013-09-15 05:36:00
1:56 AM,59.5,53.6,81,29.96,10.0,SW,9.2,-,N/A,,Clear,230,2013-09-15 05:56:00
2:16 AM,59.5,54.0,82,29.96,10.0,SW,12.7,-,N/A,,Clear,220,2013-09-15 06:16:00
2:36 AM,60.1,54.5,82,29.96,10.0,SW,11.5,17.3,N/A,,Clear,220,2013-09-15 06:36:00
2:57 AM,60.4,55.4,83,29.96,10.0,SW,11.5,19.6,N/A,,Clear,230,2013-09-15 06:57:00
3:16 AM,60.4,55.6,84,29.96,10.0,SW,11.5,20.7,N/A,,Clear,230,2013-09-15 07:16:00
3:36 AM,60.4,55.8,85,29.95,10.0,WSW,10.4,17.3,N/A,,Clear,240,2013-09-15 07:36:00
3:57 AM,60.6,56.1,85,29.96,10.0,WSW,11.5,17.3,N/A,,Clear,240,2013-09-15 07:57:00
4:16 AM,60.4,56.1,86,29.96,10.0,SW,10.4,16.1,N/A,,Clear,230,2013-09-15 08:16:00
4:36 AM,60.8,56.1,85,29.96,10.0,SW,10.4,-,N/A,,Clear,220,2013-09-15 08:36:00
4:57 AM,60.3,56.1,86,29.97,10.0,SW,8.1,-,N/A,,Scattered Clouds,220,2013-09-15 08:57:00
5:16 AM,60.3,56.3,87,29.97,10.0,SW,8.1,-,N/A,,Mostly Cloudy,220,2013-09-15 09:16:00
5:36 AM,60.8,56.3,85,29.97,10.0,WSW,12.7,18.4,N/A,,Overcast,240,2013-09-15 09:36:00
5:57 AM,61.0,57.0,87,29.98,10.0,WSW,12.7,20.7,N/A,Rain,Light Rain,240,2013-09-15 09:57:00
6:16 AM,60.8,57.4,88,29.98,10.0,WSW,12.7,21.9,N/A,Rain,Light Rain,240,2013-09-15 10:16:00
6:36 AM,61.0,58.1,90,29.98,10.0,WSW,15.0,20.7,N/A,Rain,Light Rain,250,2013-09-15 10:36:00
6:56 AM,60.6,55.4,83,29.98,10.0,WSW,10.4,17.3,N/A,,Light Drizzle,240,2013-09-15 10:56:00
7:16 AM,59.9,56.5,88,29.98,10.0,WSW,10.4,-,N/A,Rain,Light Rain,240,2013-09-15 11:16:00
7:37 AM,59.9,57.2,91,29.98,10.0,WSW,6.9,-,N/A,Rain,Light Rain,250,2013-09-15 11:37:00
7:56 AM,59.9,57.4,91,29.98,10.0,WSW,6.9,-,N/A,Rain,Light Rain,250,2013-09-15 11:56:00
8:16 AM,60.1,57.6,91,29.99,10.0,West,9.2,-,N/A,,Overcast,260,2013-09-15 12:16:00
8:37 AM,59.9,56.3,88,29.99,10.0,West,6.9,-,N/A,,Overcast,280,2013-09-15 12:37:00
8:56 AM,59.0,54.5,85,29.99,10.0,West,6.9,-,N/A,,Overcast,280,2013-09-15 12:56:00
9:16 AM,58.5,55.4,90,29.99,10.0,WNW,3.5,-,N/A,Rain,Light Rain,300,2013-09-15 13:16:00
9:37 AM,59.0,55.4,88,30.00,10.0,West,3.5,-,N/A,Rain,Light Rain,280,2013-09-15 13:37:00
9:56 AM,58.8,55.9,90,30.00,10.0,NW,3.5,-,N/A,,Light Drizzle,310,2013-09-15 13:56:00
10:16 AM,59.2,56.1,90,30.01,10.0,Calm,Calm,-,0.01,Rain,Light Rain,0,2013-09-15 14:16:00
10:37 AM,58.3,56.5,94,30.01,7.0,South,4.6,-,0.02,Rain,Rain,170,2013-09-15 14:37:00
10:56 AM,58.1,55.9,93,30.00,5.0,Calm,Calm,-,0.05,Rain,Light Rain,0,2013-09-15 14:56:00
11:16 AM,57.4,56.3,96,30.01,5.0,West,3.5,-,0.03,Rain,Rain,260,2013-09-15 15:16:00
11:37 AM,57.4,55.9,95,30.02,7.0,Calm,Calm,-,0.08,Rain,Rain,0,2013-09-15 15:37:00
11:56 AM,57.6,56.3,96,30.02,7.0,West,5.8,-,0.11,Rain,Rain,270,2013-09-15 15:56:00
12:17 PM,57.6,56.7,97,30.02,10.0,WNW,6.9,-,0.02,Rain,Light Rain,290,2013-09-15 16:17:00
12:37 PM,58.1,55.9,93,30.01,10.0,West,3.5,-,0.02,,Light Drizzle,280,2013-09-15 16:37:00
12:56 PM,58.1,55.4,91,30.01,10.0,West,4.6,-,0.02,,Light Drizzle,270,2013-09-15 16:56:00
1:17 PM,58.1,55.9,93,30.02,10.0,West,6.9,-,N/A,,Mostly Cloudy,270,2013-09-15 17:17:00
1:37 PM,58.1,55.6,91,30.02,10.0,WSW,5.8,-,N/A,,Mostly Cloudy,250,2013-09-15 17:37:00
1:56 PM,58.3,55.2,90,30.01,10.0,WSW,5.8,-,N/A,,Light Drizzle,250,2013-09-15 17:56:00
2:17 PM,58.1,55.6,91,30.02,10.0,WSW,4.6,-,N/A,,Light Drizzle,250,2013-09-15 18:17:00
2:36 PM,58.6,55.9,91,30.02,10.0,West,3.5,-,N/A,,Mostly Cloudy,260,2013-09-15 18:36:00
2:57 PM,59.0,56.1,90,30.02,10.0,SW,3.5,-,N/A,,Overcast,230,2013-09-15 18:57:00
3:17 PM,58.1,55.6,91,30.02,10.0,WSW,4.6,-,N/A,,Overcast,250,2013-09-15 19:17:00
3:36 PM,58.8,55.9,90,30.01,10.0,WSW,5.8,-,N/A,,Overcast,250,2013-09-15 19:36:00
3:57 PM,59.4,56.1,89,30.01,10.0,West,6.9,-,N/A,,Overcast,260,2013-09-15 19:57:00
4:17 PM,59.2,54.9,86,30.01,10.0,West,10.4,-,N/A,,Overcast,270,2013-09-15 20:17:00
4:36 PM,59.2,54.9,86,30.00,10.0,West,12.7,17.3,N/A,,Overcast,270,2013-09-15 20:36:00
4:57 PM,59.4,54.9,85,30.01,10.0,West,12.7,-,N/A,,Overcast,270,2013-09-15 20:57:00
5:16 PM,58.3,54.9,88,30.02,5.0,NW,12.7,17.3,N/A,Rain,Light Rain,310,2013-09-15 21:16:00
5:36 PM,55.8,54.9,97,30.03,3.0,NNW,9.2,-,0.01,,Drizzle,330,2013-09-15 21:36:00
5:57 PM,55.4,54.5,97,30.04,4.0,NNW,11.5,16.1,0.01,,Drizzle,330,2013-09-15 21:57:00
6:16 PM,54.9,53.8,96,30.05,10.0,NNW,10.4,16.1,N/A,,Overcast,340,2013-09-15 22:16:00
6:36 PM,54.7,53.6,96,30.06,10.0,NNW,9.2,20.7,N/A,,Overcast,340,2013-09-15 22:36:00
6:57 PM,53.8,52.2,94,30.07,10.0,NNW,13.8,19.6,N/A,,Overcast,340,2013-09-15 22:57:00
7:16 PM,53.2,51.4,94,30.08,10.0,North,11.5,19.6,N/A,,Overcast,350,2013-09-15 23:16:00
7:37 PM,52.7,50.5,92,30.08,10.0,North,15.0,20.7,N/A,,Overcast,360,2013-09-15 23:37:00
7:57 PM,52.2,50.0,92,30.10,10.0,North,12.7,20.7,N/A,,Overcast,360,2013-09-15 23:57:00
8:16 PM,51.4,48.7,90,30.11,10.0,North,10.4,20.7,N/A,,Overcast,360,2013-09-16 00:16:00
8:37 PM,50.9,48.2,90,30.13,10.0,North,13.8,20.7,N/A,,Overcast,360,2013-09-16 00:37:00
8:57 PM,50.5,47.5,89,30.15,10.0,North,10.4,-,N/A,,Overcast,10,2013-09-16 00:57:00
9:16 PM,50.4,47.3,89,30.15,10.0,NNE,11.5,-,N/A,,Overcast,30,2013-09-16 01:16:00
9:37 PM,50.0,46.6,88,30.16,10.0,NNE,11.5,17.3,N/A,,Overcast,30,2013-09-16 01:37:00
9:57 PM,49.6,46.0,87,30.17,10.0,NNE,12.7,18.4,N/A,,Overcast,20,2013-09-16 01:57:00
10:16 PM,49.1,45.7,88,30.17,10.0,NNE,11.5,-,N/A,,Overcast,30,2013-09-16 02:16:00
10:37 PM,49.1,45.0,86,30.18,10.0,NNE,13.8,18.4,N/A,,Overcast,20,2013-09-16 02:37:00
10:57 PM,48.6,44.6,86,30.19,10.0,North,10.4,16.1,N/A,,Overcast,10,2013-09-16 02:57:00
11:16 PM,48.2,43.5,84,30.20,10.0,North,10.4,18.4,N/A,,Overcast,10,2013-09-16 03:16:00
11:37 PM,48.0,43.2,83,30.20,10.0,NNE,13.8,17.3,N/A,,Overcast,30,2013-09-16 03:37:00
11:56 PM,47.5,42.6,83,30.21,10.0,NNE,13.8,21.9,N/A,,Overcast,30,2013-09-16 03:56:00